Weather History for EBLG - February, 2013

Change the Weather History Date:

Tuesday, February 26, 2013

  Actual Average Record
Temperature  
Mean Temperature 33 °F -  
Max Temperature 37 °F 48 °F 53 °F (2002)
Min Temperature 29 °F 36 °F 24 °F (2004)
Degree Days  
Heating Degree Days 32    
Moisture  
Dew Point 32 °F    
Average Humidity 90    
Maximum Humidity 100    
Minimum Humidity 72    
Precipitation  
Precipitation 0.00 in - - ()
Sea Level Pressure  
Sea Level Pressure 30.38 in    
Wind  
Wind Speed 8 mph ()    
Max Wind Speed 13 mph    
Max Gust Speed 18 mph    
Visibility 2.3 miles    
Events Fog , Snow    
Averages and records for this station are not official NWS values.
T = Trace of Precipitation, MM = Missing Value Source: Averaged Metar Reports

Daily Weather History Graph

Daily Weather History Graph

Search for Another Location

Airport or City:

Trip Planner

Search our weather history database for the weather conditions in past years. The results will help you decide how hot, cold, wet, or windy it might be!

Date:

Astronomy

Feb. 26, 2013 Rise Set
Actual Time 7:28 AM CET 6:14 PM CET
Civil Twilight 6:55 AM CET 6:47 PM CET
Nautical Twilight 6:17 AM CET 7:25 PM CET
Astronomical Twilight 5:39 AM CET 8:03 PM CET
Moon 7:26 PM CET (2/26) 7:13 AM CET (2/26)
Length of Visible Light 11h 52m
Length of Day
10h 46m
Full, 100% of the Moon is Illuminated
Feb 26
Full
Mar 4
Last Quarter
Mar 11
New
Mar 19
First Quarter
Mar 27
Full

Hourly Weather History & Observations

Time (CET) Temp. Windchill Dew Point Humidity Pressure Visibility Wind Dir Wind Speed Gust Speed Precip Events Conditions
12:20 AM 32.0 °F 24.2 °F 30.2 °F 93% 30.24 in 0.6 mi NE 9.2 mph - N/A Snow Light Snow
12:50 AM 32.0 °F 23.6 °F 32.0 °F 100% 30.24 in 0.7 mi ENE 10.4 mph - N/A Snow Light Snow
1:00 AM 33 °F - 31 °F 90% 30.30 in 1 mi ENE 11.2 mph - - Snow Light Snow
1:20 AM 32.0 °F 23.6 °F 32.0 °F 100% 30.27 in 0.9 mi ENE 10.4 mph - N/A Snow Light Snow
1:50 AM 33.8 °F 26.4 °F 32.0 °F 93% 30.27 in 1.4 mi ENE 9.2 mph - N/A   Mostly Cloudy
2:20 AM 33.8 °F 27.0 °F 32.0 °F 93% 30.27 in 1.7 mi ENE 8.1 mph - N/A   Mostly Cloudy
2:50 AM 33.8 °F 27.0 °F 32.0 °F 93% 30.27 in 2.2 mi ENE 8.1 mph - N/A   Mostly Cloudy
3:20 AM 33.8 °F 27.7 °F 32.0 °F 93% 30.30 in - NE 6.9 mph - N/A   Mostly Cloudy
3:50 AM 33.8 °F 29.6 °F 32.0 °F 93% 30.30 in 3.1 mi ENE 4.6 mph - N/A   Mostly Cloudy
4:00 AM 34 °F - 31 °F 86% 30.33 in 3 mi ENE 4.5 mph - -   Mist
4:20 AM 33.8 °F 27.0 °F 32.0 °F 93% 30.30 in 3.1 mi ENE 8.1 mph - N/A   Mostly Cloudy
4:50 AM 33.8 °F 27.0 °F 32.0 °F 93% 30.30 in 3.1 mi ENE 8.1 mph - N/A   Mostly Cloudy
5:20 AM 32.0 °F 24.8 °F 30.2 °F 93% 30.30 in 2.8 mi ENE 8.1 mph - N/A   Mostly Cloudy
5:50 AM 30.2 °F 23.4 °F 28.4 °F 93% 30.30 in 1.0 mi NE 6.9 mph - N/A   Mostly Cloudy
6:20 AM 30.2 °F 22.6 °F 28.4 °F 93% 30.33 in 1.5 mi NE 8.1 mph - N/A   Scattered Clouds
6:50 AM 30.2 °F 26.7 °F 30.2 °F 100% 30.33 in 1.5 mi East 3.5 mph 18.4 mph N/A   Scattered Clouds
7:00 AM 31 °F - 29 °F 91% 30.38 in 1 mi East 4.5 mph - -   Mist
7:20 AM 30.2 °F 23.4 °F 28.4 °F 93% 30.36 in 0.1 mi NE 6.9 mph - N/A Fog Light Freezing Fog
7:50 AM 30.2 °F 23.4 °F 28.4 °F 93% 30.36 in 0.1 mi NE 6.9 mph - N/A Fog Light Freezing Fog
8:20 AM 32.0 °F 25.6 °F 28.4 °F 87% 30.36 in 0.9 mi NE 6.9 mph - N/A   Mostly Cloudy
8:50 AM 32.0 °F 24.2 °F 30.2 °F 93% 30.39 in 0.9 mi NE 9.2 mph - N/A   Mostly Cloudy
9:20 AM 32.0 °F 24.8 °F 30.2 °F 93% 30.39 in 1.9 mi ENE 8.1 mph - N/A   Mostly Cloudy
9:50 AM 32.0 °F 26.4 °F 30.2 °F 93% 30.39 in 2.8 mi NE 5.8 mph - N/A   Mostly Cloudy
10:00 AM 33 °F - 30 °F 84% 30.43 in 3 mi NE 6.7 mph - -   Mist
10:20 AM 33.8 °F 28.6 °F 30.2 °F 87% 30.39 in 1.9 mi NE 5.8 mph - N/A   Mostly Cloudy
10:50 AM 33.8 °F 27.7 °F 30.2 °F 87% 30.39 in 4.3 mi NE 6.9 mph - N/A   Mostly Cloudy
11:20 AM 35.6 °F 28.6 °F 30.2 °F 81% 30.42 in 5.6 mi NE 9.2 mph - N/A   Scattered Clouds
11:50 AM 35.6 °F 28.0 °F 30.2 °F 81% 30.42 in 5.6 mi ENE 10.4 mph - N/A   Scattered Clouds
12:20 PM 35.6 °F 29.2 °F 30.2 °F 81% 30.42 in 3.7 mi NE 8.1 mph - N/A   Partly Cloudy
12:50 PM 35.6 °F 27.5 °F 30.2 °F 81% 30.42 in 5.0 mi NE 11.5 mph - N/A   Partly Cloudy
1:00 PM 36 °F - 30 °F 72% 30.46 in 5 mi NE 11.2 mph - -   Partly Cloudy
1:20 PM 35.6 °F 27.5 °F 30.2 °F 81% 30.42 in 5.0 mi ENE 11.5 mph - N/A   Mostly Cloudy
1:50 PM 37.4 °F 29.3 °F 30.2 °F 75% 30.42 in 6.2 mi NE 12.7 mph - N/A   Mostly Cloudy
2:20 PM 37.4 °F 29.8 °F 30.2 °F 75% 30.39 in 6.2 mi NE 11.5 mph - N/A   Mostly Cloudy
2:50 PM 37.4 °F 29.8 °F 30.2 °F 75% 30.42 in 6.2 mi ENE 11.5 mph - N/A   Mostly Cloudy
3:20 PM 37.4 °F 31.4 °F 30.2 °F 75% 30.42 in 5.6 mi NNE 8.1 mph - N/A   Mostly Cloudy
3:50 PM 37.4 °F 31.4 °F 32.0 °F 81% 30.42 in 4.3 mi NE 8.1 mph - N/A   Mostly Cloudy
4:00 PM 37 °F - 32 °F 74% 30.45 in 4 mi NE 8.9 mph - -   Mostly Cloudy
4:20 PM 37.4 °F 32.8 °F 33.8 °F 87% 30.39 in 3.1 mi NNE 5.8 mph - N/A   Mostly Cloudy
4:50 PM 37.4 °F 31.4 °F 33.8 °F 87% 30.39 in 2.8 mi NNE 8.1 mph - N/A   Mostly Cloudy
5:20 PM 35.6 °F 28.6 °F 33.8 °F 93% 30.39 in 2.2 mi NE 9.2 mph - N/A   Mostly Cloudy
5:50 PM 35.6 °F 28.6 °F 33.8 °F 93% 30.39 in 1.6 mi NNE 9.2 mph - N/A   Mostly Cloudy
6:20 PM 35.6 °F 29.9 °F 33.8 °F 93% 30.42 in 1.7 mi NNE 6.9 mph - N/A   Mostly Cloudy
6:50 PM 35.6 °F 29.2 °F 33.8 °F 93% 30.42 in 1.7 mi NNE 8.1 mph - N/A   Mostly Cloudy
7:00 PM 36 °F - 34 °F 89% 30.45 in 2 mi NNE 8.9 mph - -   Mist
7:20 PM 35.6 °F 29.2 °F 33.8 °F 93% 30.42 in 1.7 mi NNE 8.1 mph - N/A   Mostly Cloudy
7:50 PM 35.6 °F 28.6 °F 33.8 °F 93% 30.42 in 1.2 mi NNE 9.2 mph - N/A   Mostly Cloudy
8:20 PM 35.6 °F 29.9 °F 33.8 °F 93% 30.42 in 0.9 mi North 6.9 mph - N/A   Mostly Cloudy
8:50 PM 35.6 °F 28.6 °F 33.8 °F 93% 30.42 in 0.8 mi NNE 9.2 mph - N/A   Mostly Cloudy
9:20 PM 33.8 °F 26.4 °F 33.8 °F 100% 30.42 in 0.8 mi NNE 9.2 mph - N/A   Mostly Cloudy
9:50 PM 33.8 °F 27.0 °F 33.8 °F 100% 30.45 in 0.5 mi NNE 8.1 mph - N/A Fog Fog
10:00 PM 34 °F - 34 °F 98% 30.48 in 0 mi NNE 6.7 mph - - Fog Partial Fog
10:20 PM 33.8 °F 27.7 °F 33.8 °F 100% 30.42 in 0.4 mi North 6.9 mph - N/A Fog Fog
10:50 PM 33.8 °F 28.6 °F 33.8 °F 100% 30.42 in 0.2 mi North 5.8 mph - N/A Fog Fog
11:20 PM 33.8 °F 26.4 °F 33.8 °F 100% 30.42 in 0.2 mi North 9.2 mph - N/A Fog Fog
11:50 PM 33.8 °F 26.4 °F 33.8 °F 100% 30.42 in 0.2 mi NNE 9.2 mph - N/A Fog Fog